Location: Canaan Center
(42.3865°N, 73.4551°W)
Time: 03:53:52
(UTC+00:00)

Daily predictions for brighter satellites

Satellite Brightness Start Highest point End
(mag) Time Altitude Azimuth Time Altitude Azimuth Time Altitude Azimuth
NOSS 2-3 (C) 3.2 00:02:25 10° SW 00:06:03 84° NW 00:10:01 10° NE
Resurs 1-3 3.6 00:02:40 10° SSE 00:06:59 70° ENE 00:11:19 10° N
Meteor 2-10 Rocket 4.3 00:04:39 10° SSW 00:09:35 56° WNW 00:14:31 10° N
Cosmos 2218 Rocket 4.5 00:04:26 10° N 00:10:31 43° ENE 00:16:30 10° SSE
NOSS 2-3 (D) 3.3 00:07:35 10° SW 00:11:13 81° NW 00:15:10 10° NE
ATLAS 3B R/B 3.9 00:06:50 10° SSE 00:11:35 20° ESE 00:16:32 10° ENE
Cosmos 1025 Rocket 3.5 00:08:55 10° N 00:13:02 40° ENE 00:17:08 10° SSE
BREEZE-M R/B 4.2 00:11:42 10° WNW 00:14:05 21° NNW 00:16:05 10° NE
Okean O Rocket 2.3 00:12:56 10° SE 00:16:51 34° ENE 00:20:49 10° N
USA 281 3.8 00:13:12 10° ESE 00:19:12 40° NE 00:25:16 10° N
NOSS 2-2 (E) 4.2 00:16:50 10° WSW 00:19:56 41° NW 00:22:56 10° NNE
Resurs 01 Rocket 2.1 00:18:16 10° SE 00:22:22 40° ENE 00:26:31 10° N
Cosmos 1975 Rocket 4.0 00:21:01 10° NNE 00:24:49 29° ENE 00:28:03 13° SE
CARTOSAT-1 4.1 00:21:37 10° SE 00:25:33 38° ENE 00:29:31 10° N
Cosmos 1656 Rocket 3.9 00:20:33 10° SSW 00:26:06 75° WNW 00:31:37 10° NNE
Cosmos 1302 Rocket 4.0 00:22:11 10° S 00:27:24 66° ESE 00:32:37 10° NNE
Cosmos 1346 Rocket 2.7 00:23:54 10° S 00:27:40 61° E 00:31:27 10° NNE
SJ-6B 3.3 00:25:27 10° S 00:29:20 63° W 00:33:17 10° NNW
Meteor 1-21 Rocket 4.4 00:24:37 10° N 00:30:29 61° ENE 00:36:19 10° SSE
Cosmos 1328 3.6 00:28:35 10° N 00:32:21 64° E 00:36:06 10° SSE
OAO 3 Rocket 4.1 00:28:07 10° WSW 00:32:33 35° S 00:35:52 16° ESE
NOSS 2-2 (D) 4.0 00:31:07 10° SW 00:34:18 44° NW 00:37:19 10° NNE
DELTA 2 R/B (1) 4.4 00:30:06 10° W 00:35:18 40° SSW 00:39:37 14° SE
SL-27 R/B 4.3 00:37:20 10° NE 00:38:16 11° ENE 00:38:26 11° ENE
Cosmos 1782 Rocket 3.5 00:34:55 10° S 00:39:13 68° E 00:43:36 10° NNE
Cosmos 864 Rocket 4.5 00:34:51 10° N 00:41:05 74° E 00:47:20 10° SSE
Cosmos 1892 3.2 00:38:23 10° NNW 00:41:54 55° W 00:45:22 10° S
ATLAS 5 CENTAUR R/B 1.8 00:40:45 10° S 00:43:34 26° ESE 00:46:31 10° ENE
Cosmos 1908 Rocket 4.5 00:41:50 10° SSW 00:46:00 50° W 00:50:15 10° N
Cosmos 968 Rocket 3.8 00:41:06 10° NNW 00:46:10 66° WSW 00:51:14 10° S
USA 186 2.0 00:43:50 10° S 00:46:54 64° W 00:49:56 10° NNW
SPOT 5 4.2 00:45:36 19° ESE 00:48:15 28° ENE 00:52:41 10° N
CZ-4 R/B 2.6 00:45:25 10° S 00:49:10 40° W 00:52:52 10° NNW
SL-4 R/B 3.8 00:46:56 10° WNW 00:50:04 25° NNW 00:53:04 10° NE
Feng Yun 1-1 Rocket 4.3 00:47:03 10° SSE 00:52:31 81° WSW 00:58:10 10° NNW
USA 129 1.7 00:51:27 10° N 00:54:08 77° WNW 00:54:47 39° SSW
Cosmos 1455 2.7 00:51:30 10° SSW 00:55:01 57° W 00:58:33 10° N
ERS-1 Rocket 4.4 00:56:20 19° E 00:57:48 21° ENE 01:01:31 10° NNE
CSL-04 Debris 4.3 00:53:34 10° S 00:58:58 77° WSW 01:04:26 10° NNW
Cosmos 1953 4.1 01:00:22 10° SW 01:03:49 32° WNW 01:07:17 10° NNW
Cosmos 1300 Rocket 3.6 01:01:25 10° SSW 01:05:46 78° W 01:10:10 10° N
MOS 1 4.5 01:02:44 23° SE 01:06:09 54° ENE 01:11:43 10° N
In-Cosmos 22 Rocket 4.0 01:03:36 10° N 01:09:01 78° E 01:13:01 19° SSE
CSL-04 Rocket 4.0 01:03:59 10° S 01:09:30 69° WSW 01:14:59 10° NNW
Cosmos 2181 Rocket 4.3 01:05:30 10° SSW 01:11:38 71° W 01:17:52 10° N
SJ 16-02 1.8 01:10:09 10° NNW 01:14:24 58° WSW 01:17:18 19° S
Okean 2 Rocket 3.9 01:14:49 31° E 01:14:49 31° E 01:18:43 10° NNE
Cosmos 2297 Rocket 4.1 01:12:36 10° N 01:15:55 16° NE 01:17:48 13° ENE
NOSS 3-1 (A) 3.3 01:11:58 10° S 01:16:27 40° ESE 01:21:37 10° NE
IRS-1C Rocket 4.4 01:15:52 32° SE 01:17:56 50° ENE 01:23:02 10° N
Cosmos 2369 Rocket 3.7 01:12:55 10° SW 01:18:11 38° WNW 01:23:27 10° N
CZ-4C R/B 2.8 01:16:29 10° NNE 01:19:58 88° WNW 01:21:32 30° SSW
Cosmos 1992 Rocket 4.0 01:16:52 10° SSW 01:22:04 83° WNW 01:27:20 10° NNE
MetOp-B 4.2 01:23:41 36° SE 01:25:46 61° ENE 01:31:03 10° N
Cosmos 2098 Rocket 3.6 01:21:10 10° SSW 01:26:38 69° W 01:31:07 10° N
Spot 2 Rocket 4.4 01:27:23 30° E 01:28:00 30° ENE 01:32:22 10° N
Sich 1 Rocket 3.9 01:30:20 45° E 01:30:20 45° E 01:34:24 10° NNE
Okean-O 2.7 01:28:34 33° S 01:30:30 76° WSW 01:34:55 10° NNW
Terra 2.6 01:30:44 33° ENE 01:31:01 33° ENE 01:35:14 10° N
USA 234 4.2 01:28:21 18° S 01:32:42 39° SW 01:38:45 10° WNW
NOSS 3-1 (C) 3.5 01:35:05 10° SW 01:39:52 60° NW 01:45:36 10° NNE
IRS-1A Rocket 4.3 01:38:00 40° SE 01:40:10 71° ENE 01:46:02 10° N
USA 245 4.2 01:45:21 50° ESE 01:46:30 62° ENE 01:51:27 10° N
Ariane Rocket 3.3 01:47:05 45° E 01:47:20 46° ENE 01:52:08 10° N
Okean 1 Rocket 4.1 01:52:36 34° NE 01:52:36 34° NE 01:55:31 10° NNE
Landsat 4 4.2 01:53:50 51° NNW 01:53:50 51° NNW 01:56:34 10° NNW
Okean O Rocket 3.8 01:49:53 10° SW 01:53:12 21° W 01:56:35 10° NW
SPOT 3 Rocket 3.9 01:53:53 47° ENE 01:54:04 48° ENE 01:59:02 10° N
Nadezhda 3 Rocket 4.1 01:49:58 13° SSW 01:55:29 70° W 02:01:40 10° N
Cosmos 1486 Rocket 3.9 01:53:37 10° NNW 01:58:51 86° WSW 01:59:33 67° S
Resurs 01 Rocket 4.0 01:55:51 10° SW 01:58:58 19° W 02:02:08 10° NW
ATLAS 3B R/B 2.8 01:54:18 10° SW 02:01:20 84° NW 02:08:54 10° NE
USA 281 4.1 01:59:34 20° SSW 02:03:38 42° WSW 02:09:49 10° NW
Iridium 4 Rocket 3.4 02:09:52 77° SSE 02:10:17 84° E 02:15:58 10° N
Cosmos 1605 Rocket 4.2 02:04:14 10° N 02:10:31 54° ENE 02:10:50 53° E
Cosmos 1932 4.3 02:07:04 10° NNW 02:13:18 70° NE 02:13:59 64° E
SPOT 5 4.1 02:24:45 35° SW 02:26:01 41° W 02:31:03 10° NNW
ATLAS 5 CENTAUR R/B 3.5 02:24:42 10° W 02:27:25 22° NW 02:30:22 10° NNE
Cosmos 1536 Rocket 4.5 02:24:16 10° NNW 02:28:03 45° WNW 02:28:03 45° WNW
SL-4 R/B 4.3 02:27:14 10° NW 02:29:13 17° N 02:29:13 17° N
Cosmos 2227 Rocket 3.5 02:26:38 10° N 02:31:09 29° NE 02:31:09 29° NE
ERS-1 Rocket 3.6 02:36:16 48° W 02:36:16 48° W 02:41:04 10° NNW
ARGOS Delta rocket 4.4 02:42:13 65° NNW 02:42:13 65° NNW 02:46:50 10° N
CZ-4C R/B 3.8 02:43:06 10° NNW 02:49:43 40° NE 02:51:18 36° ENE
Cosmos 2297 Rocket 2.7 02:55:08 10° NNW 02:59:36 57° NNW 02:59:36 57° NNW
COSMOS 2455 3.3 02:55:52 10° NNW 03:00:56 54° NNE 03:00:56 54° NNE
Terra 3.7 03:09:27 25° WNW 03:09:27 25° WNW 03:12:36 10° NW
USA 229 DEB 3.9 03:16:02 57° NNE 03:16:02 57° NNE 03:21:26 10° NNE
USA 229 3.9 03:16:15 56° NNE 03:16:15 56° NNE 03:21:34 10° NNE
CENTAUR R/B 4.0 03:18:39 10° NNW 03:26:22 43° NE 03:28:19 38° ENE
Cosmos 2263 Rocket 3.7 03:30:32 10° N 03:34:00 29° NNE 03:34:00 29° NNE
Cosmos 2227 Rocket 4.0 04:10:22 10° NW 04:12:58 26° NW 04:12:58 26° NW
Cosmos 1980 Rocket 3.9 04:21:01 28° NNE 04:21:01 28° NNE 04:23:37 10° NNE
Cosmos 1697 Rocket 4.4 04:30:31 28° NNW 04:30:31 28° NNW 04:34:18 10° N
NOSS 3-2 (A) 4.3 04:29:57 10° NNW 04:36:40 64° NNE 04:36:40 64° NNE
CZ-4C R/B 3.7 04:31:16 10° NW 04:36:23 46° WNW 04:36:23 46° WNW
Cosmos 2333 Rocket 4.4 05:10:52 17° ENE 05:10:52 17° ENE 05:12:26 10° NE
Cosmos 2360 Rocket 4.3 05:15:07 20° NE 05:15:07 20° NE 05:17:01 10° NE
CENTAUR R/B 3.7 05:09:13 10° NW 05:15:26 51° WNW 05:15:26 51° WNW
Cosmos 2263 Rocket 4.5 05:14:26 10° NW 05:15:40 16° NW 05:15:40 16° NW
Cosmos 2322 Rocket 4.0 05:24:53 26° NE 05:24:53 26° NE 05:27:20 10° NNE
Cosmos 2219 Rocket 4.4 05:32:27 18° ENE 05:32:27 18° ENE 05:34:18 10° NE
USA 215 3.9 05:23:23 10° NE 05:28:03 50° NE 05:28:03 50° NE
SL-16 R/B 3.7 05:40:46 33° N 05:40:46 33° N 05:43:53 10° NNE
NOSS 3-2 (C) 4.2 05:42:26 10° NW 05:48:48 67° NNW 05:48:48 67° NNW
ADEOS II 4.5 05:53:44 10° NE 05:55:52 15° E 05:55:52 15° E
USA 267 3.7 06:04:36 54° NNW 06:04:36 54° NNW 06:09:37 10° NW
Cosmos 1844 Rocket 4.5 06:00:48 10° NNW 06:02:56 24° NNW 06:02:56 24° NNW
CZ-2D R/B 3.8 06:04:53 10° NE 06:08:14 27° ENE 06:08:14 27° ENE
COSMOS 2428 4.0 06:28:39 33° E 06:28:39 33° E 06:32:45 10° NE
Cosmos 2237 Rocket 4.4 06:34:52 15° ESE 06:35:34 15° E 06:38:44 10° ENE
CZ-2C R/B 3.6 06:35:48 44° ENE 06:35:48 44° ENE 06:40:49 10° N
Lacrosse 5 3.1 06:42:19 38° NNE 06:42:19 38° NNE 06:45:49 10° NE
CZ-2C R/B 4.3 06:38:15 10° NNE 06:42:29 35° E 06:42:29 35° E
Cosmos 44 Rocket 4.4 06:44:53 44° NNE 06:44:53 44° NNE 06:48:24 10° NNE
Cosmos 2322 4.3 06:44:17 52° ENE 06:44:17 52° ENE 06:48:54 10° NNE
NPP 4.3 06:39:54 10° NNE 06:44:02 54° NNE 06:44:02 54° NNE
ALOS 4.3 06:42:22 10° NE 06:45:36 20° E 06:45:36 20° E
USA 238 DEB 4.1 06:42:03 10° NW 06:48:03 59° WNW 06:48:03 59° WNW
USA 238 4.1 06:42:09 10° NW 06:48:16 60° WNW 06:48:16 60° WNW
Resurs 1-4 Rocket 2.7 06:44:56 10° NNE 06:49:06 54° NE 06:49:06 54° NE
Cosmos 2333 Rocket 3.1 06:52:51 39° NNW 06:52:51 39° NNW 06:57:09 10° NNE
Cosmos 2360 Rocket 3.4 06:56:51 33° NW 06:56:51 33° NW 07:01:04 10° N
Cosmos 2279 Rocket 4.0 06:50:59 10° N 06:56:36 74° NNW 06:56:36 74° NNW
Nadezhda 4 Rocket 4.4 06:59:27 49° ESE 07:00:13 52° E 07:06:08 10° NNE
Cosmos 2322 Rocket 3.8 07:06:40 23° NW 07:06:40 23° NW 07:10:43 10° N
Cosmos 1538 Rocket 4.5 07:08:15 56° E 07:08:15 56° E 07:13:10 10° NNE
Cosmos 2278 Rocket 3.7 07:03:15 10° N 07:08:25 34° ENE 07:13:32 10° ESE
IDEFIX/ARIANE 42P 3.2 07:04:48 10° N 07:08:47 48° NNW 07:08:47 48° NNW
USA 215 4.5 07:06:41 10° NE 07:12:22 33° NNW 07:15:22 23° WNW
GP-B 4.3 07:08:36 10° NNE 07:12:34 37° E 07:12:34 37° E
Cosmos 2219 Rocket 2.8 07:14:08 46° NW 07:14:08 46° NW 07:18:54 10° NNE
Gbstr 26 Del rocket 4.1 07:20:36 40° NNE 07:20:36 40° NNE 07:23:15 10° NE
SL-16 R/B 4.4 07:22:36 13° NW 07:23:24 13° NW 07:25:58 10° NNW
MSX 4.0 07:17:52 10° N 07:23:18 58° WNW 07:23:18 58° WNW
NOSS 3-4 (A) 4.1 07:26:04 35° NW 07:26:31 36° NW 07:32:03 10° NNE
NOSS 3-4 (C) 4.1 07:26:07 36° NW 07:26:34 36° NW 07:32:06 10° NNE
RESURS DK-1 3.3 07:28:45 45° NE 07:28:45 45° NE 07:31:44 10° NNE
Cosmos 1151 Rocket 4.4 07:31:08 31° ESE 07:31:51 33° E 07:35:45 10° NNE
BREEZE-M DEB (TANK) 4.4 07:31:47 30° NNW 07:32:40 34° NNE 07:39:36 10° ENE
ADEOS II 2.0 07:31:34 10° N 07:36:45 68° WNW 07:36:45 68° WNW
FENGYUN 3A 3.5 07:35:58 10° N 07:41:24 74° WNW 07:41:47 70° WSW
Cosmos 1092 Rocket 4.3 07:40:20 30° SSE 07:43:16 60° E 07:49:18 10° NNE
Cosmos 1408 Rocket 4.2 07:41:46 10° NNW 07:44:55 46° NNW 07:44:55 46° NNW
CZ-2D R/B 2.9 07:44:45 10° N 07:49:32 36° WNW 07:49:32 36° WNW
EO 1 Delta rocket 4.3 07:45:19 10° NNE 07:49:53 56° E 07:51:24 38° SSE
Cosmos 2026 Rocket 4.2 07:47:38 31° SSE 07:50:48 69° E 07:57:07 10° NNE
Envisat 4.0 07:47:03 10° NNE 07:51:52 42° E 07:54:41 22° SSE
SL-16 R/B 2.4 07:51:52 46° SSW 07:53:39 65° WSW 07:59:50 10° NNW
Cosmos 1805 Rocket 3.3 07:58:19 10° N 08:02:39 79° W 08:02:57 74° SW
UNK 3.5 08:02:07 63° SSW 08:02:42 74° WSW 08:07:18 10° NNW
Cosmos 1500 Rocket 3.6 07:58:50 10° NNW 08:03:03 62° W 08:03:03 62° W
Meteor 1-27 Rocket 3.7 08:04:15 44° SSW 08:06:10 75° W 08:11:54 10° N
Cosmos 1943 Rocket 2.8 08:02:29 10° NNW 08:08:04 56° ENE 08:13:38 10° SE
CZ-4 R/B 3.9 08:04:16 10° NNE 08:09:02 75° ESE 08:10:51 37° S
Thor Agena Rocket 4.4 08:04:30 10° NNE 08:09:19 44° E 08:13:17 15° SSE
Meteor 2-4 Rocket 4.4 08:06:32 14° SSE 08:10:54 50° E 08:16:11 10° NNE
Cosmos 1627 Rocket 4.4 08:08:19 30° S 08:11:39 84° W 08:18:04 10° N
COSMOS 2428 3.5 08:10:38 33° W 08:11:49 36° WNW 08:17:03 10° N
Cosmos 1733 2.8 08:12:06 10° N 08:15:42 80° W 08:15:45 80° WSW
CZ-2C R/B 3.9 08:17:16 23° WNW 08:17:16 23° WNW 08:20:32 10° NW
YAOGAN 6 3.5 08:15:18 10° NNE 08:18:24 39° E 08:19:46 26° SSE
Cosmos 2237 Rocket 2.1 08:16:42 39° SW 08:18:53 75° WNW 08:24:35 10° NNE
BlueWalker 3 3.0 08:15:54 11° NW 08:19:27 44° NNE 08:23:07 10° ESE
Cosmos 1980 3.7 08:18:03 39° SW 08:20:10 69° WNW 08:25:50 10° NNE
Meteor 1-11 Rocket 4.0 08:17:09 10° NNW 08:22:22 43° W 08:23:45 36° SW
CZ-2C R/B 4.0 08:18:18 10° N 08:22:41 29° WNW 08:23:30 28° W
Cosmos 1867 3.8 08:17:36 10° NW 08:22:49 46° WSW 08:27:59 10° S
ALOS 2.7 08:18:48 10° N 08:23:09 42° WNW 08:23:56 38° W
Cosmos 2112 Rocket 4.2 08:20:47 25° S 08:23:58 71° ESE 08:29:18 10° NNE
Lacrosse 5 4.0 08:21:30 11° WNW 08:24:49 19° NNW 08:28:28 10° NNE
ATLAS 2AS CENTAUR R/B 3.4 08:19:52 17° S 08:25:36 54° ESE 08:32:35 10° NE
Sich 1 3.4 08:24:04 10° NNW 08:28:01 40° W 08:28:05 40° W
Resurs 1-4 Rocket 3.8 08:26:17 10° NNW 08:29:23 16° WNW 08:30:10 16° WNW
Cosmos 1340 Rocket 2.6 08:28:57 35° S 08:30:28 87° E 08:34:21 10° N
Meteor 2-9 Rocket 4.4 08:27:46 10° NNW 08:32:53 46° W 08:35:52 24° SSW
Cosmos 1328 Rocket 3.8 08:31:28 16° S 08:34:57 71° E 08:39:23 10° NNE
Cosmos 375 4.5 08:32:02 10° NW 08:36:02 82° SW 08:41:09 10° SSE
Cosmos 1805 3.0 08:32:31 10° N 08:36:15 85° WSW 08:39:21 14° S
Cosmos 2344 4.2 08:27:36 10° NW 08:36:23 67° WSW 08:48:45 10° SSE
Cosmos 1743 Rocket 4.1 08:33:23 10° NNW 08:37:17 33° W 08:37:38 33° WSW
SWAS 4.5 08:36:28 10° NNW 08:40:42 79° ENE 08:44:53 10° SSE
IRS-1D 3.6 08:35:41 10° NNE 08:40:47 82° ESE 08:45:39 12° SSW
Cosmos 1633 Rocket 3.1 08:40:02 10° N 08:44:23 80° E 08:48:43 10° S
NOSS 2-2 (C) 4.1 08:43:47 10° NW 08:48:29 66° WSW 08:55:11 10° SSE
Cosmos 1680 Rocket 3.7 08:47:51 23° SW 08:51:05 57° WNW 08:56:20 10° NNE
Cosmos 2278 Rocket 2.7 08:47:19 10° NW 08:52:29 37° WSW 08:57:37 10° S
Cosmos 1420 Rocket 4.0 08:55:25 10° NNW 09:00:37 65° WSW 09:05:49 10° S
Iridium 51 3.8 08:58:42 10° S 09:02:05 86° E 09:05:26 10° N
Cosmos 1461 3.5 09:01:00 10° WNW 09:04:15 26° WSW 09:07:28 10° S
Cosmos 2056 Rocket 3.5 08:59:09 10° NNW 09:04:32 72° WSW 09:09:55 10° S
RESURS DK-1 4.4 09:04:22 12° WNW 09:05:53 14° NW 09:08:02 10° NNW
Cosmos 494 Rocket 4.2 09:03:38 10° SSW 09:08:46 75° ESE 09:13:55 10° NNE
Cosmos 1151 Rocket 4.5 09:07:55 17° W 09:09:25 20° WNW 09:12:40 10° NNW
SL-16 R/B 2.2 09:03:46 10° SSW 09:09:25 86° ESE 09:15:07 10° NNE
CZ-2C R/B 2.9 09:04:56 10° N 09:09:53 47° WNW 09:14:38 11° SW
Cosmos 1553 Rocket 4.0 09:04:16 10° NNW 09:10:26 58° W 09:16:27 10° S
NOSS 3-1 (C) 4.5 09:04:20 10° NNW 09:11:47 72° NE 09:20:45 10° SE
Cosmos 1674 3.5 09:08:41 10° SSE 09:11:58 45° E 09:15:17 10° NNE
PAYLOAD A 4.2 09:08:39 10° N 09:13:25 49° WNW 09:17:59 10° SW
USA 308 3.0 09:12:46 14° SW 09:15:53 60° SE 09:19:46 10° ENE
Cosmos 1939 Rocket 4.2 09:12:22 10° NNE 09:15:55 38° E 09:19:27 10° SSE
Cosmos 1766 3.1 09:12:30 10° N 09:16:12 89° E 09:19:53 10° S
Cosmos 1624 Rocket 4.0 09:11:46 10° NNW 09:16:53 56° WSW 09:21:56 10° S
Cosmos 1340 3.1 09:16:23 10° NNW 09:19:29 32° W 09:22:34 10° SSW
Cosmos 921 Rocket 3.5 09:16:42 13° SW 09:20:15 42° WNW 09:24:22 10° N
Cosmos 1626 2.3 09:18:46 11° SSW 09:21:43 39° WNW 09:24:50 10° N
Cosmos 1975 3.7 09:19:08 10° NNW 09:22:25 27° W 09:25:42 10° SSW
KORONAS-FOTON 4.4 09:19:45 10° S 09:23:20 56° E 09:26:56 10° NNE
Intercosmos 25 Rocket 4.3 09:21:02 10° NNW 09:24:16 30° W 09:28:37 10° SSW
Cosmos 1515 Rocket 3.5 09:20:14 10° SSW 09:24:40 72° W 09:29:07 10° N
ATLAS 5 CENTAUR R/B 2.5 09:25:18 10° NNW 09:30:23 72° NE 09:36:41 10° SE
Cosmos 1470 Rocket 3.7 09:26:12 10° NNW 09:30:28 51° W 09:34:45 10° S
Envisat 4.2 09:26:33 10° NNW 09:30:35 24° WNW 09:34:36 10° WSW
CBERS-1 4.0 09:25:49 10° NNE 09:30:57 85° WNW 09:36:01 10° SSW
Cosmos 1484 Rocket 2.5 09:27:56 10° N 09:31:33 78° WNW 09:35:07 10° SSW
ATLAS 3B R/B 3.9 09:26:10 10° NNW 09:33:49 55° NE 09:41:21 10° SE
BREEZE-M DEB (TANK) 2.8 09:34:35 10° W 09:39:06 38° NNW 09:41:18 10° NE
H-2A R/B 2.9 09:36:24 10° NNE 09:39:44 64° ESE 09:43:02 10° S
Cosmos 1908 4.4 09:37:37 10° N 09:41:10 46° E 09:44:39 10° SSE
